Wind_Speed
31 30 29 31 37 43 45 41 39 39 39 40 42 40 40 42 42 40 38 36 35 35 35 32 28 24 24 27 27 25 24 23 22 20 19 19 20 20 19 20 20 22 23 22 21 23 23 24 23 21 20 21 21 21 21 21 23 25 27 27 26 26 25 25 24 24 25 25 24 23 23 24 26 26 24 22 21 20 19 20 19 19 18 17 16 16 16
32 30 28 30 34 42 48 46 41 41 41 41 41 38 38 40 41 41 40 37 36 36 35 32 29 27 25 25 24 23 22 21 19 19 18 18 18 20 20 21 21 23 24 23 22 23 24 26 26 24 20 18 19 20 20 20 22 22 24 26 26 25 24 24 24 25 26 26 26 25 24 24 25 26 25 23 21 19 20 21 21 22 22 20 18 17 17
32 30 28 28 29 36 45 48 46 45 44 44 43 40 39 40 41 41 40 38 37 37 35 32 29 28 26 23 20 18 17 17 18 18 18 19 19 21 22 23 23 24 25 25 24 24 24 25 26 26 24 20 18 19 19 20 22 21 19 20 22 24 24 24 24 25 27 27 27 27 26 24 24 24 23 22 22 22 23 24 24 24 24 23 21 19 18
29 28 27 27 26 28 34 42 47 46 44 44 44 43 42 41 42 41 40 38 36 35 34 31 29 30 29 25 21 17 16 18 20 21 21 22 22 23 24 24 25 26 26 27 27 26 26 25 25 26 26 24 21 19 18 19 22 22 20 18 18 20 21 22 23 25 27 29 30 30 29 27 25 24 24 24 25 25 25 26 27 26 24 23 23 22 21
29 25 24 25 26 25 28 35 42 44 42 41 43 46 45 44 44 43 41 40 37 36 35 34 32 32 32 29 25 22 19 18 20 23 25 25 26 26 27 27 28 28 28 28 28 28 28 27 26 25 26 26 25 24 21 20 22 23 22 22 21 20 19 19 21 22 25 28 29 31 32 31 29 27 26 27 28 28 28 28 28 27 26 24 23 23 24
31 27 25 24 24 26 28 30 37 44 44 41 42 44 44 45 46 45 44 44 42 40 39 38 36 35 34 32 29 26 24 21 20 22 24 26 28 29 29 29 29 29 30 30 30 30 29 29 28 27 27 27 27 27 25 23 22 22 21 21 23 24 22 19 19 21 23 26 28 30 33 33 32 30 29 29 30 30 30 30 29 28 27 26 26 26 26
32 30 29 27 26 28 29 29 33 40 43 43 44 45 43 45 46 45 44 46 45 44 43 41 40 40 38 36 33 29 27 26 23 22 23 25 27 29 30 31 31 31 31 31 31 31 30 31 30 29 29 29 29 29 28 26 25 24 23 22 23 24 24 22 20 20 22 25 28 30 32 33 32 31 30 29 30 30 31 32 31 30 28 27 28 28 28
35 33 32 31 30 29 31 32 32 35 38 41 46 46 44 45 46 45 44 45 45 46 45 43 43 43 42 41 38 34 31 29 27 26 25 26 27 28 29 31 32 33 33 33 33 33 33 33 33 32 32 32 32 32 31 29 28 27 27 27 26 25 25 24 23 23 23 25 27 29 31 32 32 30 29 28 28 28 29 31 32 32 32 31 30 30 30
36 36 34 32 32 32 33 34 34 34 35 38 42 43 42 43 45 45 44 45 46 46 45 45 45 45 44 43 42 39 35 32 30 29 29 29 29 29 29 30 31 32 33 34 35 36 36 36 36 36 35 35 35 34 34 33 32 31 30 30 30 30 29 27 26 26 26 27 27 28 29 30 31 30 29 29 28 28 29 30 31 33 34 34 33 33 32
35 36 36 35 34 33 34 35 35 35 35 37 38 38 39 39 40 39 38 40 45 47 46 46 46 46 46 45 44 43 39 36 33 32 33 34 34 33 32 32 32 33 34 35 35 36 37 37 37 37 37 37 37 37 36 36 35 35 34 33 32 32 32 32 30 29 29 29 28 29 29 29 29 29 29 30 30 30 31 31 31 33 35 36 35 34 33
31 33 35 36 35 34 34 34 35 36 37 37 36 36 37 37 37 36 34 34 39 44 47 48 48 47 47 45 44 44 42 40 37 35 36 38 39 39 37 37 36 36 36 37 37 37 38 38 38 37 37 37 37 37 37 38 38 37 36 36 35 34 34 34 33 32 30 30 30 30 30 30 29 29 29 28 29 30 31 32 32 33 35 35 35 35 34
28 30 31 32 33 34 33 32 33 35 37 37 36 37 38 38 37 36 35 34 34 37 42 45 46 48 48 46 45 44 43 42 40 37 36 37 40 41 40 39 39 39 39 38 38 38 39 39 39 39 38 38 38 37 37 38 38 39 38 38 37 36 36 35 35 34 33 31 31 31 31 31 31 30 29 28 27 29 30 31 32 33 34 35 35 35 36
26 28 29 29 30 30 30 30 31 32 34 36 37 37 38 38 37 37 36 35 34 34 36 38 39 41 42 43 43 42 41 39 37 36 36 38 40 41 41 40 40 40 40 40 39 39 39 39 39 39 40 39 39 39 39 38 38 38 38 38 38 38 38 37 36 36 35 33 32 31 32 33 33 31 30 28 28 29 29 29 30 31 33 35 36 37 38
23 25 25 26 26 26 26 27 28 28 30 33 34 33 33 34 35 35 35 34 33 33 33 34 34 36 37 38 38 39 38 36 35 35 37 39 40 42 43 43 43 42 42 41 40 40 40 40 40 40 40 40 40 39 40 40 40 39 38 38 38 38 38 38 38 37 37 36 34 33 33 34 34 33 32 30 30 30 31 31 31 31 32 34 36 38 39
21 22 22 23 23 23 24 24 25 25 27 28 28 28 28 29 30 31 33 33 33 33 33 34 35 36 37 37 38 38 38 38 37 38 39 40 41 42 43 44 43 43 42 42 42 42 41 41 41 41 41 41 41 41 41 41 41 41 40 40 40 39 38 38 39 39 38 38 37 36 36 36 36 35 35 34 33 32 33 33 33 33 33 33 34 37 38
21 22 22 22 22 23 23 24 25 25 26 26 26 26 26 26 27 28 29 30 31 32 32 33 35 36 37 38 38 38 38 39 39 39 40 41 42 42 43 44 44 44 43 43 43 43 43 43 43 43 43 43 43 42 42 42 42 42 42 42 42 41 40 40 40 40 40 40 40 40 39 39 38 38 38 37 37 36 35 35 35 35 35 34 34 35 35
22 23 23 23 24 25 25 25 26 26 25 26 26 26 26 27 28 28 29 29 30 31 31 32 34 35 36 36 37 37 38 38 38 39 39 40 41 42 43 44 45 46 46 46 46 46 45 45 45 45 45 45 46 46 45 45 44 44 44 44 44 44 43 43 43 43 43 43 43 43 42 41 41 41 40 40 40 40 39 38 38 38 37 37 36 35 35
21 23 24 25 26 27 27 28 28 27 27 26 27 27 27 28 29 30 30 31 31 31 31 32 33 34 34 34 35 36 36 36 37 38 38 39 39 39 40 41 43 45 46 47 48 48 47 47 47 47 47 48 48 48 48 47 47 47 47 47 46 46 46 46 45 45 46 46 46 46 45 45 44 44 43 43 43 42 42 41 41 41 40 40 39 37 37
20 22 23 25 26 27 28 29 29 28 27 27 27 27 27 28 29 31 31 31 31 31 31 31 32 33 33 34 35 35 35 35 35 37 38 39 39 38 38 39 40 42 44 45 46 47 47 47 47 48 49 50 50 50 50 49 49 49 49 49 49 49 49 48 48 47 47 47 48 48 48 48 48 47 47 46 46 46 45 44 44 43 43 43 42 40 39
21 23 24 24 26 27 28 29 29 29 28 28 28 28 28 29 30 31 32 33 32 32 33 33 33 33 33 34 34 34 34 35 35 36 38 39 40 40 39 39 40 41 42 43 44 44 45 46 46 47 48 49 50 50 51 51 51 52 52 52 52 52 52 52 51 50 49 48 48 49 49 49 50 50 50 49 49 49 48 47 47 46 46 46 46 45 43
23 24 26 26 28 29 29 29 29 29 29 29 30 30 30 31 32 33 34 34 35 34 34 34 34 34 35 35 35 35 35 36 36 36 37 38 39 40 40 41 41 42 42 42 43 43 44 45 46 46 47 47 48 49 50 51 52 52 53 53 53 53 54 54 54 53 52 51 50 50 50 50 50 50 51 52 52 51 51 51 50 49 49 49 49 48 47
25 26 27 29 30 31 31 31 31 31 31 31 31 32 33 33 34 34 35 36 37 36 36 36 36 36 36 37 37 37 38 38 37 37 37 38 38 39 40 41 41 42 43 44 44 45 45 46 46 46 46 47 47 48 48 49 50 51 52 53 53 54 54 55 55 54 54 53 52 52 51 51 51 51 51 52 53 53 53 54 53 53 52 52 52 52 51
27 28 29 30 32 33 34 34 35 35 35 35 34 34 35 35 36 36 37 38 38 38 38 37 36 36 37 37 38 38 39 39 39 39 39 39 39 40 41 41 41 41 42 44 45 46 46 46 46 47 48 48 48 48 48 48 49 50 51 52 52 53 54 54 55 55 55 54 54 53 53 52 52 52 52 52 54 54 54 54 55 56 55 55 55 55 55
29 29 30 32 33 35 36 37 37 38 38 38 38 37 37 37 38 38 39 39 40 40 39 39 39 38 39 39 40 40 40 40 39 39 39 40 41 42 42 42 42 42 42 44 45 46 46 46 46 47 48 48 49 49 49 49 49 50 50 51 52 52 53 54 55 56 56 56 55 54 54 54 53 53 53 53 53 54 55 55 56 57 58 58 57 57 57
31 31 32 33 34 35 37 38 38 39 39 39 39 39 39 39 40 40 41 41 42 42 41 41 41 41 41 42 43 43 42 41 41 41 41 41 42 43 43 43 43 43 44 45 45 45 45 45 46 46 46 47 47 48 49 49 50 50 50 51 52 53 53 54 54 55 56 56 56 55 55 54 54 54 54 54 54 55 55 56 56 57 58 59 60 60 60
32 33 33 34 35 36 37 39 39 40 41 41 40 41 41 40 41 42 43 43 44 44 44 44 44 44 44 44 44 44 44 43 43 43 43 43 43 43 43 43 43 44 45 46 46 45 45 45 46 46 46 46 46 46 47 47 48 49 49 50 51 52 53 54 55 55 56 56 57 57 56 56 56 55 55 55 56 56 56 56 57 57 58 60 61 61 62
36 36 36 36 36 36 37 39 40 41 42 42 43 44 43 43 43 44 44 45 45 46 46 45 44 44 45 45 45 45 45 45 45 45 45 45 44 44 44 44 45 45 45 45 45 45 46 46 46 46 46 47 47 46 46 46 46 47 47 48 49 50 51 52 53 54 56 57 57 58 58 58 57 57 56 56 57 57 58 58 58 58 59 60 61 62 62
39 39 39 39 39 39 39 40 41 42 43 44 44 45 45 45 45 45 46 46 46 46 46 45 45 45 45 45 45 45 46 46 47 47 46 46 46 45 45 45 45 46 46 45 44 45 46 46 46 46 47 48 48 47 47 47 47 47 47 47 48 48 49 50 51 53 54 56 57 57 58 58 58 58 58 58 58 58 59 59 59 60 60 61 61 62 63
40 40 40 40 41 41 42 42 42 43 44 45 45 45 46 47 47 47 47 48 49 49 48 48 48 47 47 46 46 46 45 46 46 46 46 46 46 46 45 45 46 46 45 45 45 45 46 46 47 48 48 48 48 48 48 49 49 49 48 48 48 49 49 50 50 51 52 54 55 56 57 58 58 59 59 59 59 59 59 59 60 60 61 62 63 64 64
38 38 38 39 39 39 41 42 43 44 44 45 45 45 46 47 48 48 48 49 50 50 50 50 50 49 48 47 46 46 45 44 45 45 45 46 46 46 46 47 47 47 47 46 46 46 46 47 48 48 49 49 49 49 49 49 50 50 50 50 50 50 50 50 50 51 52 53 53 55 56 56 57 58 58 59 60 60 61 61 61 61 61 62 63 64 66
37 37 37 37 37 38 38 40 41 41 42 43 44 44 45 46 47 47 47 48 48 48 49 49 49 48 46 46 46 46 46 45 46 47 47 47 48 48 48 49 49 49 49 48 48 47 47 48 48 48 49 49 50 50 50 50 50 51 51 51 51 51 51 51 51 51 52 53 54 54 55 56 56 57 58 58 59 60 61 62 63 63 63 63 64 64 66
37 37 37 37 37 37 37 38 38 39 40 41 42 43 44 44 44 45 46 46 46 46 47 47 47 46 45 45 46 47 47 47 47 48 49 50 50 50 51 52 52 52 51 50 49 49 49 49 48 49 49 49 49 49 49 49 50 50 50 51 52 52 52 53 54 54 55 55 56 56 57 57 58 58 59 59 59 60 61 62 63 64 65 66 66 66 67
38 38 38 38 38 39 39 38 38 38 39 40 41 42 43 43 44 44 45 45 45 45 45 46 46 45 45 45 46 46 45 44 45 45 46 47 47 47 49 50 51 51 51 50 50 50 50 50 49 49 49 49 49 49 50 50 50 51 51 52 52 53 54 55 56 57 58 58 59 59 60 60 61 61 61 62 62 62 62 63 63 64 65 67 68 69 69
37 37 37 38 38 39 39 40 40 40 40 40 40 40 41 42 42 42 43 44 44 43 44 44 44 43 43 43 44 43 41 40 41 42 42 43 43 44 45 46 47 47 48 49 49 49 49 49 49 49 49 50 50 50 51 51 52 52 52 53 53 54 56 57 58 58 59 59 60 61 61 62 63 64 64 65 66 66 66 66 66 66 66 67 68 69 71
40 39 39 38 38 38 38 39 40 41 41 40 40 39 39 39 40 40 41 41 41 42 42 42 42 41 41 41 41 39 38 38 40 40 40 40 40 41 42 43 43 44 45 46 46 47 47 47 48 48 49 50 50 51 52 52 52 53 53 54 54 55 56 57 58 59 60 60 61 62 62 63 64 65 67 68 68 69 69 69 69 69 69 68 68 69 70
43 42 42 42 41 41 40 39 39 40 40 40 40 40 39 39 39 39 39 39 39 40 40 40 40 41 41 39 37 36 36 38 39 39 39 39 39 39 40 40 42 43 44 45 45 46 46 46 47 48 49 49 50 51 51 51 52 52 52 52 53 54 54 54 55 56 57 58 59 60 61 62 63 64 65 66 67 67 68 69 70 70 70 70 70 70 70
46 46 46 45 44 44 43 42 41 41 41 40 39 39 39 39 38 38 38 38 38 38 38 38 39 40 40 37 35 34 34 35 36 36 37 37 37 37 38 38 39 41 42 43 44 44 44 45 45 46 47 47 48 48 48 48 48 48 48 48 49 50 50 51 52 53 53 54 56 57 58 59 61 62 63 64 64 65 66 67 68 69 69 70 70 70 71
48 48 48 48 47 46 46 45 44 44 44 44 42 40 39 39 38 38 38 38 37 37 37 37 38 39 39 37 36 35 35 35 36 37 37 37 36 35 34 34 36 37 38 39 40 40 41 41 42 42 43 43 44 44 44 45 45 45 46 46 47 48 49 50 51 52 53 55 56 57 58 59 60 61 62 63 63 64 64 64 65 65 66 67 68 69 69
48 48 48 48 48 48 48 48 47 47 47 48 47 45 42 40 39 38 38 38 37 37 36 37 37 37 37 37 37 36 34 35 37 38 37 35 33 32 32 32 33 35 36 37 37 38 39 39 40 40 40 40 41 42 43 44 44 45 46 47 48 49 50 51 53 54 55 56 57 58 59 59 60 60 61 61 62 62 62 62 62 62 63 63 64 65 66
41 41 42 42 43 43 43 44 45 47 48 49 49 49 47 45 42 40 38 37 37 36 36 35 35 35 36 37 36 34 33 34 36 36 35 33 32 32 33 34 34 35 36 36 37 37 38 38 39 39 39 39 40 41 42 44 45 47 48 49 50 50 51 52 53 54 55 56 57 58 59 59 59 59 59 59 59 60 60 61 61 61 61 62 62 63 64
38 39 40 41 42 42 42 41 41 42 44 46 48 50 50 49 47 44 41 38 37 36 35 34 33 33 33 35 35 35 36 38 38 37 36 34 33 33 34 35 35 35 35 36 36 37 37 38 38 38 39 40 41 42 44 45 47 48 49 49 49 50 51 51 53 54 55 56 57 57 58 58 58 58 58 58 58 58 59 60 61 61 61 62 62 63 63
42 44 44 44 45 45 45 44 43 42 41 41 43 47 50 50 49 48 45 41 38 37 35 33 32 31 30 32 34 36 38 40 41 40 38 35 33 32 33 34 33 33 33 34 35 36 37 38 39 39 41 42 43 44 45 45 46 47 47 48 48 50 51 53 54 55 55 55 55 56 56 56 57 58 58 58 59 59 59 59 59 60 60 61 61 62 62
41 40 39 39 40 40 41 42 43 43 42 40 39 42 46 49 49 47 45 43 41 38 35 33 31 29 29 31 33 34 34 36 37 37 35 33 32 32 33 33 32 32 33 34 36 37 38 39 40 40 41 42 42 43 44 45 46 47 48 49 49 50 51 52 52 52 53 53 54 55 56 57 58 59 59 59 59 59 58 57 56 56 56 57 57 58 58
34 31 31 32 33 34 34 35 36 38 41 41 38 37 40 44 46 45 43 41 40 38 36 33 31 29 29 31 32 32 31 31 31 31 31 31 31 32 33 32 32 33 34 35 36 37 38 39 39 40 41 42 42 43 44 45 46 47 47 47 47 47 48 49 50 51 52 54 55 56 57 58 59 59 59 59 58 56 54 51 50 49 50 50 50 51 52
29 28 28 29 30 31 31 30 30 31 34 36 36 34 35 39 42 43 40 37 37 37 36 33 31 29 28 29 31 32 32 31 31 31 31 30 30 31 32 32 33 33 34 35 36 37 38 39 39 40 41 41 42 42 42 42 42 43 44 44 45 47 48 50 51 53 54 55 56 57 57 58 59 59 57 55 52 49 46 44 43 44 45 46 46 46 47
28 27 27 26 26 25 25 26 26 26 26 29 31 32 32 34 38 39 36 33 33 35 35 33 31 29 27 27 29 31 32 32 32 31 31 30 30 31 32 32 32 32 34 35 35 36 37 37 37 37 37 37 37 38 38 39 41 43 45 46 48 50 51 52 53 54 55 56 57 58 58 59 58 55 51 48 45 43 41 39 40 41 42 42 42 42 43
27 24 23 23 22 20 18 19 21 22 23 25 27 28 29 31 33 33 31 29 28 29 31 31 31 30 28 26 26 26 27 27 28 29 29 29 30 30 30 30 30 31 32 33 33 33 34 33 33 33 34 35 36 38 40 42 44 45 47 48 49 51 52 54 55 56 57 58 58 58 57 55 51 47 44 42 40 38 37 37 38 38 39 39 39 39 39
26 25 23 21 19 17 14 11 13 18 22 23 24 26 29 31 30 28 26 26 26 27 27 28 29 29 28 26 24 23 22 22 23 23 24 25 26 27 28 28 29 29 30 30 30 31 31 32 32 33 35 37 39 41 43 44 45 47 48 50 52 53 55 56 56 56 56 55 53 51 49 46 42 40 39 38 37 36 35 35 35 36 35 35 35 36 36
27 26 23 19 17 14 9 4 5 13 19 22 23 27 31 32 29 27 27 28 28 27 27 26 26 26 26 24 23 21 19 19 20 20 22 23 24 25 26 27 27 27 27 28 29 30 31 33 34 36 38 40 41 43 44 46 48 50 52 53 53 53 52 51 49 48 46 44 43 41 40 38 37 36 36 35 35 34 33 33 32 32 32 33 33 34 35
26 25 21 17 16 14 10 7 7 13 19 22 25 30 32 30 27 29 30 29 25 24 25 24 23 23 22 22 21 20 20 20 20 21 23 24 24 25 25 26 26 26 27 28 30 32 33 35 37 39 41 42 43 44 47 49 51 51 50 48 46 44 43 42 40 39 37 36 36 35 34 33 33 33 33 33 33 32 30 30 30 31 32 32 33 34 34
25 22 19 16 15 15 14 14 14 18 22 24 26 28 28 23 22 25 27 25 22 23 24 24 22 21 21 21 20 20 20 20 20 21 22 23 23 24 25 26 27 28 29 31 33 34 36 38 39 41 42 44 45 47 48 49 48 46 44 41 40 38 37 36 35 34 33 32 32 31 30 29 29 29 30 30 29 29 28 28 29 29 30 30 31 32 33
22 20 18 15 14 14 14 15 17 19 21 22 23 24 22 19 20 24 25 23 21 21 21 21 20 20 21 21 21 20 19 19 20 20 21 22 23 24 25 27 28 29 31 32 34 35 37 38 40 42 44 46 46 46 44 43 41 40 39 38 36 34 33 32 31 30 29 28 28 27 26 26 26 26 27 26 27 27 27 28 28 29 29 29 30 30 31
Wind_Direction
190 196 195 195 195 192 192 197 201 203 203 201 203 207 211 215 218 221 224 226 225 224 224 225 223 220 218 212 207 208 209 209 214 218 221 222 216 212 213 216 220 225 228 228 224 221 219 215 214 217 221 221 215 211 213 218 220 223 225 224 222 223 225 226 225 225 228 228 223 221 221 227 237 240 235 228 222 220 220 219 219 223 229 235 238 237 234
189 194 193 192 194 194 195 198 202 206 207 205 205 207 208 210 214 219 221 224 227 225 223 223 218 214 213 208 204 207 209 210 216 220 223 226 223 219 218 219 224 228 231 232 231 230 229 229 229 230 229 226 221 216 217 220 223 224 225 223 222 225 229 233 234 233 233 233 232 230 225 223 230 235 234 231 227 224 224 223 223 222 222 224 229 235 238
191 193 191 188 191 195 198 200 205 209 209 208 210 211 210 210 212 216 219 221 224 224 221 220 218 214 212 210 209 214 217 218 220 219 220 225 227 226 224 224 227 230 233 234 235 236 236 236 235 233 231 233 235 230 224 222 223 227 230 228 226 226 228 232 234 233 233 233 233 230 223 221 226 230 230 231 230 228 226 225 224 223 224 223 222 222 226
193 196 197 196 195 198 201 204 209 214 216 215 215 216 216 215 216 218 220 222 225 227 224 223 223 221 218 219 223 228 228 226 224 220 219 221 224 226 227 227 229 231 234 236 237 238 238 237 237 235 233 235 238 237 233 229 230 233 237 237 234 232 232 233 233 234 234 235 233 229 224 226 231 235 236 235 231 229 228 228 227 225 224 226 227 224 221
197 201 205 207 207 206 208 209 212 217 222 223 222 221 220 220 220 221 223 225 228 231 229 228 228 226 224 224 225 228 229 226 223 222 223 223 224 226 227 228 229 231 233 236 238 240 240 238 238 239 238 238 239 243 247 247 243 244 246 246 246 245 244 241 239 240 240 240 239 236 235 239 242 242 240 237 233 230 229 230 231 229 225 225 227 229 227
206 210 213 216 217 217 216 215 214 218 222 226 226 226 225 225 224 224 225 227 229 231 233 233 232 231 231 229 226 225 227 227 223 221 223 225 227 228 230 231 233 234 235 236 237 239 241 240 239 239 242 244 245 249 253 253 250 250 253 255 254 253 252 251 250 248 246 246 247 246 246 247 246 244 242 238 233 231 232 231 230 230 228 226 225 226 229
218 222 224 225 224 224 224 221 217 217 222 227 228 229 229 228 227 226 227 228 230 231 234 236 236 236 236 236 233 229 227 229 229 226 224 223 225 228 230 233 237 240 241 241 241 241 242 242 242 241 243 246 249 252 254 254 253 252 252 253 254 255 254 255 256 254 250 248 249 252 253 251 247 245 243 237 232 232 234 233 232 231 230 229 227 225 226
227 229 230 230 228 225 223 222 219 217 220 226 229 230 232 232 230 229 229 229 230 231 233 236 237 237 237 238 239 237 233 232 235 235 232 227 225 226 228 230 233 238 241 244 245 245 245 245 245 245 246 248 250 253 254 254 253 253 252 251 251 253 255 255 254 254 253 250 249 250 253 254 250 246 242 236 231 232 234 235 236 235 232 230 230 229 227
229 230 230 227 224 221 218 217 218 217 217 222 227 229 232 234 234 234 232 230 230 231 234 236 237 237 237 237 239 239 237 235 235 237 237 234 230 229 229 230 231 234 238 241 244 246 247 247 247 247 248 249 251 253 254 255 255 255 255 253 251 251 252 253 254 253 253 253 251 248 250 252 252 250 245 240 234 233 234 236 239 240 236 232 232 232 232
227 229 227 224 220 218 216 217 218 218 218 220 222 225 228 230 232 234 235 233 231 232 234 237 238 239 239 238 237 237 238 236 235 236 238 239 237 236 236 235 235 235 237 238 241 244 246 248 248 248 248 249 249 251 253 255 256 256 256 255 254 252 251 251 252 253 254 254 252 249 249 250 251 251 250 247 241 237 237 239 242 242 238 235 234 234 235
221 223 225 224 222 220 219 220 221 223 224 225 224 224 226 227 229 233 237 236 234 234 235 237 239 241 242 242 239 238 238 239 239 241 242 242 242 241 240 239 239 239 239 239 240 242 244 246 248 249 249 249 249 250 250 251 253 254 254 255 255 254 253 251 251 252 252 253 252 250 250 251 250 250 251 251 247 243 241 242 244 243 239 235 235 235 236
217 219 222 224 224 223 222 222 223 226 228 230 231 230 231 232 234 236 238 238 237 236 236 238 240 242 244 245 243 242 242 242 244 244 241 240 241 241 240 239 238 238 239 240 240 240 241 244 246 248 249 250 251 251 251 250 251 251 252 253 254 255 254 254 253 252 252 252 252 251 251 252 252 250 248 248 247 245 243 243 245 246 242 238 238 239 241
218 220 222 223 224 224 224 223 223 226 228 230 232 233 234 236 237 238 239 240 239 238 238 239 240 242 244 244 244 245 245 244 243 241 238 237 238 239 239 237 236 235 236 238 239 240 241 243 244 246 248 250 252 254 255 255 254 253 253 253 253 254 255 255 255 255 254 253 252 252 252 253 255 255 252 251 250 250 249 247 248 249 247 244 245 247 248
219 222 225 227 226 225 223 222 222 224 227 230 232 234 235 235 236 236 237 237 237 237 237 237 238 240 242 242 241 242 241 240 238 236 235 235 236 237 239 239 238 237 237 238 240 241 242 243 244 246 248 249 251 253 256 258 259 258 258 257 256 255 256 256 256 256 256 255 254 252 251 251 253 254 255 255 254 253 254 253 253 252 251 249 248 250 252
217 222 224 227 229 227 224 223 223 224 227 230 232 234 234 234 234 234 235 235 235 234 234 234 235 236 238 238 238 238 238 238 237 236 235 236 236 237 239 241 242 242 242 241 241 242 242 243 244 245 247 249 250 251 253 256 258 259 260 260 260 259 258 258 258 259 258 257 255 253 251 249 249 249 251 252 252 252 252 253 253 253 253 252 251 251 253
221 225 228 229 231 232 231 230 231 230 231 232 232 233 234 235 236 236 237 238 238 238 237 236 235 235 235 236 237 238 238 238 238 238 238 239 239 239 241 243 245 246 246 245 244 243 243 244 245 246 248 249 250 250 251 252 253 255 256 257 258 259 259 259 260 260 260 260 258 256 254 251 249 247 247 248 249 249 250 251 252 253 253 253 253 254 254
226 229 233 234 236 238 239 240 240 239 238 238 237 237 237 237 238 239 240 241 242 242 242 241 240 238 237 237 237 237 238 237 238 239 240 241 241 242 242 244 245 246 247 248 247 246 246 246 247 248 249 249 250 250 251 251 251 252 253 254 255 256 257 258 258 259 260 261 261 260 258 256 254 251 248 247 247 248 248 248 250 252 254 254 254 254 255
230 231 233 235 237 239 240 241 242 242 241 241 241 241 240 239 239 240 241 241 243 244 245 246 246 244 242 241 240 239 238 238 238 238 239 240 241 242 242 243 244 245 247 248 249 250 250 249 249 248 249 249 250 251 251 252 252 253 253 254 254 255 255 256 256 257 258 260 261 261 261 260 259 256 253 250 249 248 248 247 248 250 253 254 254 254 254
239 238 237 237 239 241 242 243 243 243 243 242 243 244 244 243 242 242 243 243 243 244 245 246 248 248 247 246 245 244 243 242 241 240 240 240 240 241 241 241 242 243 245 247 249 251 251 251 251 250 249 250 251 252 253 253 253 254 254 254 255 255 255 255 255 255 256 257 258 259 260 260 260 259 257 255 253 251 250 248 248 249 251 253 255 255 254
246 245 244 242 243 244 245 245 247 248 247 246 246 246 246 247 246 246 246 246 246 245 245 245 247 248 249 249 249 249 248 247 246 244 243 243 243 243 243 243 243 244 245 246 248 249 250 251 251 251 251 251 252 252 253 253 254 254 255 255 256 256 256 256 255 255 255 255 256 256 257 257 257 258 258 258 256 255 253 251 249 248 248 250 252 254 253
251 251 250 248 247 248 248 248 249 250 250 249 248 248 247 247 247 248 249 250 250 249 248 247 247 248 249 250 250 251 250 250 249 248 247 246 246 246 247 247 247 247 247 247 247 248 248 249 251 252 253 253 252 252 252 253 254 254 255 255 256 257 257 258 258 257 256 255 255 255 255 255 254 254 255 256 257 257 256 255 253 251 249 249 250 251 251
252 254 255 255 253 252 251 249 248 248 248 248 248 248 248 247 246 246 247 249 251 252 252 252 251 250 250 250 251 251 251 251 251 250 250 249 248 247 247 248 248 249 249 250 249 248 248 249 250 252 253 253 252 252 253 253 253 254 254 255 256 256 257 258 259 259 258 258 257 256 255 255 254 253 253 253 254 255 255 256 256 255 253 252 250 250 250
250 251 254 256 258 258 257 254 252 250 249 248 246 246 246 246 246 245 244 246 248 250 251 253 252 252 252 253 253 253 253 253 252 253 253 252 251 250 249 248 248 249 250 251 251 250 250 250 251 251 252 252 253 253 253 253 253 253 254 254 255 256 256 257 258 259 259 259 258 258 256 256 255 254 253 253 253 253 253 253 255 255 255 254 253 252 251
253 252 252 253 256 259 261 261 260 258 256 255 252 249 248 247 247 247 246 246 247 248 249 251 251 251 251 252 252 253 253 253 254 254 255 255 254 253 252 251 250 249 250 251 252 252 252 252 252 252 252 252 253 253 254 254 254 253 253 254 254 254 255 256 256 257 259 259 259 259 258 257 256 255 254 253 252 252 251 251 251 252 253 254 254 254 253
259 258 258 257 256 257 259 260 261 260 260 259 258 255 253 251 251 250 249 248 247 247 248 249 250 250 251 251 252 252 253 253 254 254 254 254 255 255 256 255 253 252 251 251 252 253 254 254 254 254 254 254 254 254 254 254 255 254 254 254 254 254 254 255 255 256 257 258 259 259 259 259 258 257 256 254 252 252 251 250 250 250 251 252 252 253 253
264 264 264 263 262 260 259 258 258 259 259 259 258 258 257 256 254 252 251 249 248 248 247 248 249 250 250 250 251 252 253 254 254 254 253 253 254 255 257 257 257 255 253 253 253 254 254 255 255 255 256 255 255 255 255 255 255 256 256 255 255 255 255 255 256 256 256 256 257 257 257 258 258 258 258 257 256 254 253 252 250 250 250 251 251 251 252
265 265 265 265 265 263 261 259 258 257 258 258 258 258 258 257 256 254 252 251 250 250 249 248 248 249 250 250 251 252 253 253 254 255 255 255 255 256 257 257 258 257 256 255 255 255 254 255 255 255 255 255 255 255 255 255 255 256 256 257 257 257 257 257 257 257 257 257 257 257 257 257 257 257 257 257 257 257 256 255 254 252 251 250 250 251 251
268 267 267 267 266 264 262 260 258 257 256 256 256 256 256 255 255 255 254 253 252 252 252 250 249 249 250 250 251 251 252 253 253 254 255 256 256 257 257 258 258 258 259 258 258 257 256 256 256 256 255 255 254 255 255 256 256 256 257 258 258 259 259 259 259 259 258 258 258 258 258 257 257 257 256 256 256 256 257 257 256 255 254 253 252 251 251
272 271 270 269 268 267 265 262 260 259 257 257 257 256 255 255 255 257 257 256 255 255 255 255 254 252 252 251 251 251 251 251 252 252 253 254 255 256 256 257 258 259 260 260 259 259 259 258 257 257 256 256 255 255 256 256 257 258 258 259 260 261 261 261 261 261 260 260 260 260 260 259 259 258 258 257 256 256 256 256 256 255 255 255 255 254 253
272 271 270 269 269 268 266 264 262 260 258 257 257 255 254 254 255 256 257 257 257 257 257 256 256 255 254 253 252 251 250 250 251 251 251 251 252 253 254 256 257 258 258 259 260 261 260 260 259 258 258 257 257 256 256 257 258 259 260 261 261 262 262 262 262 262 262 262 262 262 262 261 261 260 260 259 258 257 256 256 255 255 254 254 254 255 255
271 271 271 270 269 267 265 263 262 261 260 259 258 256 255 254 254 254 254 254 255 256 257 257 256 256 255 254 253 252 251 251 251 252 253 253 252 252 253 254 256 256 257 258 260 261 261 260 259 259 259 259 258 258 257 257 258 258 259 260 261 262 262 262 262 263 263 263 264 264 264 264 264 263 263 262 261 260 259 258 257 256 255 255 254 254 254
272 272 272 272 270 267 264 262 261 261 260 260 259 258 257 255 253 253 253 253 252 253 254 254 255 255 255 255 255 254 254 255 255 256 256 257 257 256 256 255 255 255 256 257 258 259 259 259 259 259 259 259 259 259 259 258 258 258 259 260 261 262 262 263 263 263 264 264 265 265 266 266 266 266 265 265 264 263 262 261 260 259 258 257 256 255 254
274 273 272 271 269 266 265 263 262 261 260 260 259 259 258 257 254 253 252 252 252 252 252 253 253 254 255 256 256 256 256 257 257 257 257 257 257 258 257 256 255 255 255 255 256 257 257 258 258 258 258 258 258 259 259 259 259 260 261 261 262 264 264 265 265 265 265 265 265 265 266 266 267 267 267 267 267 266 266 265 263 262 261 260 258 257 256
276 275 274 273 270 268 266 265 263 262 260 259 259 258 258 257 256 254 252 251 252 251 251 252 252 252 253 253 254 254 253 252 253 254 255 255 255 256 257 257 256 255 254 254 254 255 255 256 256 256 257 257 258 258 259 260 261 262 263 264 265 266 266 267 267 267 267 267 267 267 267 267 268 268 268 269 269 269 268 268 266 265 264 262 261 260 259
277 275 274 274 272 270 268 266 264 263 261 259 258 257 256 255 255 254 253 251 250 250 250 250 249 248 248 249 252 255 253 250 248 249 251 253 254 255 256 257 256 255 254 253 253 253 254 255 255 256 257 257 258 259 260 261 262 263 264 265 266 266 267 268 268 269 269 269 269 269 269 269 270 270 270 271 270 270 269 269 268 267 266 264 263 262 261
279 277 275 274 273 270 268 265 263 262 261 259 258 256 255 254 253 253 252 251 249 248 248 248 248 246 245 245 248 251 251 248 246 246 248 250 252 254 255 256 255 255 255 255 255 255 256 257 258 258 259 259 260 261 262 263 264 264 265 266 267 267 268 269 269 270 270 271 271 271 271 271 271 271 271 271 271 271 270 269 268 267 266 265 264 263 262
280 279 277 276 273 269 266 263 260 258 258 257 256 256 255 254 253 252 251 250 249 248 248 248 247 246 244 243 242 242 243 244 244 245 247 250 253 254 255 255 255 255 256 256 257 257 259 259 259 259 260 260 261 262 263 264 264 265 265 266 267 268 269 270 270 271 271 272 272 272 273 273 273 273 273 272 272 271 270 269 268 268 267 266 265 264 263
281 280 278 276 273 269 266 263 258 255 254 253 252 252 252 252 251 251 250 250 250 248 247 246 246 246 245 242 240 240 241 244 246 247 247 249 251 253 253 254 254 255 256 257 258 259 259 259 258 258 259 260 261 262 262 263 264 265 265 266 267 268 269 270 271 272 272 273 273 273 274 274 274 274 274 274 273 272 271 270 269 267 266 265 265 264 263
282 281 278 276 273 270 266 263 259 255 252 250 249 248 247 248 248 248 249 249 249 248 247 245 245 245 244 241 240 240 241 242 243 244 244 244 246 248 250 253 256 258 259 259 260 260 260 259 259 259 260 260 261 261 262 263 264 265 266 266 267 268 270 270 271 272 273 273 274 274 274 274 275 274 274 274 274 273 272 271 269 268 266 265 265 264 263
285 283 280 278 276 273 269 265 260 256 251 248 246 245 245 245 245 245 246 246 246 246 246 245 244 244 242 240 239 240 240 239 240 241 241 241 243 247 251 256 259 260 261 261 260 260 260 260 260 260 260 260 261 262 262 264 265 266 267 268 269 270 271 271 272 272 273 273 274 275 275 275 275 275 274 274 273 272 271 271 270 268 267 265 264 263 263
291 287 284 282 279 277 274 270 264 259 253 248 244 242 242 243 243 243 243 244 244 244 244 242 242 243 242 239 238 239 240 240 241 242 243 245 246 248 252 256 259 261 261 261 260 259 259 260 260 261 261 261 262 263 264 266 267 268 269 270 270 271 271 272 272 273 274 274 275 276 276 276 276 276 275 274 274 273 272 271 269 268 267 266 265 264 263
294 289 285 281 278 275 273 269 266 262 257 250 243 239 238 239 240 240 240 241 242 243 242 240 241 243 241 236 236 239 241 241 241 240 241 243 246 248 251 255 257 258 259 260 260 260 261 262 262 263 264 265 266 267 267 268 269 269 270 270 271 271 272 273 274 274 275 275 275 276 276 276 277 277 277 277 276 275 273 272 271 269 268 266 265 264 263
298 291 286 282 279 275 271 267 262 258 255 251 245 238 234 233 234 236 237 238 239 240 241 240 240 242 240 235 235 237 236 233 231 232 236 241 247 250 252 254 257 259 261 262 262 263 264 265 265 266 267 267 268 269 269 270 270 271 271 272 272 273 273 274 275 275 275 276 276 277 277 278 278 278 278 278 278 277 275 273 271 269 266 265 264 264 263
305 299 294 289 284 278 273 268 262 255 250 246 243 238 233 230 228 229 231 234 235 235 236 236 237 239 239 237 234 233 232 231 232 237 242 246 249 251 252 255 260 263 264 265 265 265 266 266 267 268 269 269 269 270 270 271 272 273 273 274 274 274 275 276 276 276 277 277 277 278 279 279 280 280 280 280 279 277 274 271 268 266 265 265 265 265 264
309 305 301 297 290 281 273 268 262 254 246 240 237 235 231 225 221 220 223 226 229 230 230 231 232 235 237 237 235 236 240 244 247 249 249 248 248 250 254 258 262 264 265 265 266 266 267 267 268 269 269 270 270 271 271 272 273 274 275 276 277 278 279 279 279 278 278 278 278 279 280 281 281 282 281 279 277 274 271 268 265 265 266 267 267 266 266
316 311 308 305 300 290 277 266 257 249 239 230 227 227 224 218 213 211 213 216 221 225 226 227 229 233 237 237 236 238 243 248 250 250 249 249 250 252 255 258 259 260 262 263 264 265 266 267 268 269 270 271 272 273 274 275 277 279 280 281 282 282 282 281 281 280 280 279 280 280 281 281 281 280 278 276 273 270 267 265 264 265 266 267 268 267 267
332 328 324 320 315 305 289 270 253 239 226 217 215 215 212 204 199 199 203 208 216 221 223 224 227 231 234 234 235 239 244 247 247 247 247 248 250 252 253 254 255 257 259 260 262 264 266 267 268 269 270 272 274 276 278 280 281 282 283 284 284 284 283 282 281 280 280 280 280 280 280 280 278 276 274 272 270 267 264 264 265 266 266 267 267 267 267
344 344 340 335 330 322 307 281 246 222 210 205 204 202 196 187 181 182 190 197 201 206 213 220 226 231 233 235 237 240 241 242 241 242 243 245 248 251 253 254 254 255 256 258 260 261 263 265 267 269 272 275 277 279 281 282 283 284 285 285 285 284 282 281 280 279 279 278 278 277 276 275 273 272 271 269 267 265 264 266 268 268 267 266 265 266 266
351 351 350 350 349 347 341 317 212 195 191 189 186 182 176 171 169 176 187 194 197 203 212 221 226 228 228 228 229 230 233 237 243 247 248 249 251 253 255 256 256 256 256 257 259 261 264 268 271 274 276 278 280 281 282 283 284 285 285 285 284 283 281 280 279 278 277 275 274 272 271 271 270 270 269 267 265 265 267 269 269 268 267 266 265 266 266
359 1 5 10 17 26 43 72 117 149 160 166 169 169 167 163 164 172 181 188 195 202 208 212 216 220 223 225 228 234 241 246 251 254 255 255 255 257 257 258 259 259 259 261 263 266 269 272 274 275 277 279 280 281 283 284 285 285 285 285 285 283 282 281 280 277 275 272 270 269 269 268 268 268 267 266 265 267 268 268 268 267 267 266 266 265 264
7 11 19 31 44 55 66 81 105 129 142 150 155 158 159 157 159 168 176 184 192 198 203 209 217 225 232 236 238 242 247 249 251 253 255 254 254 255 256 257 259 261 262 264 267 268 271 273 275 277 279 281 283 284 285 286 286 287 288 288 287 286 284 281 279 276 273 270 269 268 267 267 266 266 265 265 265 265 265 265 265 266 267 268 268 266 264
14 19 27 39 52 64 74 87 103 122 136 143 147 150 155 160 168 176 184 190 193 197 206 217 226 232 237 241 243 246 248 250 251 253 253 253 254 256 258 260 262 264 265 267 269 271 274 276 279 281 283 284 286 287 288 288 289 290 290 289 288 286 283 280 277 274 271 268 267 266 265 264 264 264 264 264 264 264 264 265 266 268 270 271 271 268 265
Height
5811 5815 5818 5820 5822 5824 5825 5827 5828 5830 5832 5835 5839 5841 5843 5846 5848 5850 5852 5854 5857 5860 5864 5867 5869 5872 5873 5872 5872 5875 5877 5878 5880 5882 5883 5886 5889 5891 5893 5894 5895 5896 5897 5899 5901 5903 5905 5907 5908 5909 5910 5912 5914 5917 5918 5920 5921 5923 5924 5925 5926 5927 5927 5928 5930 5933 5935 5937 5937 5937 5937 5940 5944 5947 5949 5949 5949 5950 5952 5952 5953 5954 5955 5957 5958 5959 5960
5809 5814 5816 5817 5819 5821 5822 5824 5826 5829 5831 5835 5837 5839 5840 5843 5846 5848 5850 5853 5854 5857 5861 5864 5867 5869 5871 5871 5872 5873 5875 5877 5879 5880 5881 5884 5887 5889 5891 5892 5893 5894 5895 5897 5899 5901 5903 5905 5906 5907 5908 5909 5912 5914 5916 5918 5919 5919 5921 5922 5923 5925 5926 5926 5928 5929 5931 5934 5936 5937 5937 5938 5940 5944 5946 5947 5947 5948 5949 5950 5950 5950 5951 5952 5954 5956 5957
5809 5812 5814 5815 5817 5819 5821 5823 5825 5826 5829 5833 5836 5837 5839 5842 5843 5845 5848 5850 5852 5855 5859 5862 5865 5867 5869 5871 5871 5872 5874 5876 5878 5879 5880 5882 5884 5887 5889 5891 5892 5893 5893 5894 5896 5898 5900 5901 5903 5905 5906 5908 5910 5912 5914 5915 5915 5916 5917 5919 5920 5922 5922 5923 5925 5927 5928 5931 5933 5935 5935 5936 5938 5940 5943 5944 5944 5944 5945 5946 5946 5947 5948 5949 5950 5951 5953
5808 5810 5812 5814 5816 5819 5822 5823 5824 5825 5828 5832 5834 5835 5838 5840 5842 5844 5846 5848 5850 5853 5857 5860 5862 5864 5867 5869 5870 5870 5872 5874 5876 5877 5878 5879 5881 5884 5886 5888 5889 5890 5891 5892 5894 5895 5897 5899 5901 5902 5903 5906 5908 5909 5910 5912 5913 5914 5915 5916 5918 5919 5920 5921 5923 5925 5927 5929 5931 5932 5933 5933 5934 5936 5938 5939 5940 5940 5941 5942 5943 5944 5946 5947 5948 5949 5949
5806 5807 5809 5812 5815 5819 5822 5823 5824 5824 5826 5830 5832 5833 5836 5838 5840 5843 5845 5847 5848 5851 5854 5857 5859 5861 5864 5867 5868 5869 5871 5873 5874 5875 5876 5878 5879 5881 5883 5884 5886 5887 5888 5890 5892 5893 5895 5897 5899 5900 5901 5902 5904 5905 5906 5909 5911 5911 5912 5914 5915 5916 5918 5919 5921 5922 5924 5926 5928 5929 5930 5930 5931 5933 5934 5935 5936 5937 5939 5939 5940 5942 5944 5945 5946 5947 5947
5804 5805 5807 5810 5814 5817 5819 5821 5822 5822 5823 5827 5829 5831 5834 5836 5838 5840 5842 5844 5846 5848 5851 5853 5856 5858 5860 5863 5866 5868 5869 5871 5873 5874 5875 5876 5877 5879 5880 5881 5883 5884 5886 5888 5890 5891 5892 5894 5896 5898 5899 5899 5900 5902 5904 5906 5908 5909 5910 5912 5913 5913 5914 5915 5917 5919 5920 5922 5924 5925 5925 5926 5928 5930 5931 5932 5933 5934 5936 5937 5938 5939 5940 5942 5943 5943 5943
5801 5802 5805 5808 5811 5812 5815 5818 5820 5820 5822 5825 5826 5828 5832 5833 5834 5837 5839 5841 5843 5845 5847 5849 5851 5854 5857 5860 5863 5866 5868 5870 5871 5872 5874 5875 5876 5877 5878 5879 5880 5881 5883 5885 5887 5888 5890 5891 5893 5895 5896 5897 5898 5899 5900 5903 5905 5907 5909 5910 5911 5912 5912 5913 5915 5916 5918 5919 5920 5921 5922 5922 5924 5926 5927 5928 5930 5932 5933 5934 5935 5936 5937 5939 5940 5940 5941
5798 5800 5803 5806 5807 5808 5811 5814 5816 5818 5821 5822 5823 5825 5828 5830 5831 5834 5836 5838 5840 5842 5843 5844 5847 5850 5854 5857 5860 5863 5866 5868 5869 5870 5871 5873 5874 5874 5875 5877 5878 5879 5880 5881 5883 5884 5886 5887 5889 5891 5893 5894 5895 5896 5897 5899 5901 5904 5906 5908 5909 5910 5911 5912 5913 5914 5916 5917 5918 5918 5919 5918 5919 5921 5924 5925 5926 5928 5930 5932 5933 5934 5935 5936 5936 5937 5938
5795 5797 5800 5802 5804 5805 5807 5810 5813 5816 5818 5819 5820 5822 5825 5826 5827 5829 5832 5834 5836 5838 5839 5840 5842 5846 5850 5853 5856 5859 5862 5865 5867 5867 5868 5869 5870 5872 5873 5874 5875 5876 5877 5878 5879 5880 5881 5883 5885 5887 5889 5891 5892 5893 5894 5896 5898 5900 5902 5904 5906 5907 5908 5909 5910 5911 5913 5914 5914 5915 5916 5916 5915 5916 5919 5922 5923 5925 5926 5928 5930 5931 5932 5933 5933 5934 5935
5792 5795 5797 5799 5801 5802 5804 5807 5810 5813 5815 5815 5816 5819 5820 5821 5823 5825 5827 5830 5831 5833 5835 5837 5839 5841 5844 5848 5851 5855 5859 5862 5864 5865 5864 5864 5866 5868 5869 5871 5872 5873 5873 5875 5876 5876 5877 5879 5880 5882 5885 5887 5888 5890 5891 5892 5894 5895 5897 5899 5901 5903 5904 5906 5907 5908 5909 5910 5911 5912 5913 5913 5912 5912 5915 5917 5920 5921 5922 5923 5924 5926 5928 5929 5930 5931 5932
5790 5792 5793 5796 5798 5800 5802 5805 5807 5809 5811 5812 5814 5815 5816 5818 5820 5821 5824 5826 5828 5829 5832 5833 5835 5837 5839 5842 5846 5850 5854 5858 5860 5860 5860 5860 5861 5863 5864 5866 5867 5868 5869 5871 5873 5873 5874 5875 5876 5878 5880 5882 5884 5886 5887 5889 5890 5891 5893 5894 5896 5898 5900 5901 5903 5904 5905 5906 5908 5909 5909 5909 5909 5910 5911 5913 5915 5917 5918 5919 5919 5921 5923 5925 5926 5928 5929
5787 5788 5790 5792 5795 5798 5800 5802 5804 5805 5807 5809 5811 5811 5812 5814 5817 5819 5821 5823 5824 5826 5827 5829 5831 5833 5834 5837 5841 5845 5849 5852 5854 5855 5856 5855 5855 5856 5859 5861 5862 5863 5864 5866 5868 5869 5870 5871 5872 5874 5875 5877 5879 5880 5882 5884 5886 5887 5888 5890 5892 5893 5895 5896 5898 5899 5901 5902 5904 5905 5905 5906 5906 5907 5908 5910 5911 5913 5914 5915 5916 5916 5918 5920 5922 5924 5925
5785 5786 5788 5790 5792 5795 5797 5800 5800 5801 5803 5805 5805 5806 5808 5812 5813 5815 5818 5820 5821 5822 5824 5826 5828 5829 5829 5833 5837 5839 5842 5845 5847 5849 5850 5850 5849 5851 5853 5854 5856 5857 5858 5860 5862 5864 5865 5867 5868 5869 5870 5872 5873 5875 5876 5878 5880 5882 5884 5885 5887 5888 5889 5891 5892 5893 5895 5897 5898 5900 5901 5901 5903 5904 5904 5905 5907 5908 5910 5912 5912 5913 5914 5916 5918 5919 5920
5783 5784 5786 5787 5789 5792 5794 5796 5797 5798 5799 5799 5800 5802 5804 5807 5808 5810 5813 5815 5816 5818 5820 5822 5824 5825 5826 5829 5832 5833 5835 5837 5840 5841 5842 5843 5844 5846 5846 5847 5849 5852 5854 5856 5858 5859 5860 5861 5863 5864 5865 5866 5868 5870 5870 5871 5873 5875 5877 5879 5881 5882 5884 5885 5886 5888 5889 5891 5893 5895 5896 5897 5899 5900 5901 5902 5903 5904 5906 5907 5908 5908 5909 5911 5912 5913 5914
5781 5782 5783 5785 5787 5789 5791 5792 5794 5795 5795 5796 5797 5799 5800 5801 5803 5805 5806 5808 5810 5812 5814 5817 5819 5819 5821 5823 5825 5826 5829 5831 5833 5834 5835 5837 5839 5841 5841 5841 5844 5847 5849 5851 5853 5854 5855 5856 5858 5860 5861 5862 5863 5865 5866 5867 5868 5869 5871 5873 5874 5876 5878 5880 5881 5882 5884 5885 5887 5889 5892 5894 5895 5896 5897 5898 5899 5900 5901 5902 5903 5904 5904 5905 5907 5908 5910
5779 5780 5781 5783 5784 5785 5787 5789 5790 5791 5792 5793 5795 5796 5797 5798 5799 5800 5801 5802 5804 5806 5808 5811 5813 5814 5816 5818 5820 5822 5824 5826 5827 5828 5829 5831 5833 5835 5836 5837 5839 5841 5843 5845 5847 5849 5850 5851 5853 5855 5856 5857 5858 5860 5861 5863 5864 5865 5866 5867 5868 5870 5872 5874 5875 5876 5877 5879 5881 5883 5886 5888 5890 5892 5893 5895 5896 5896 5897 5898 5898 5899 5900 5901 5902 5904 5905
5778 5779 5780 5781 5782 5782 5784 5785 5786 5787 5789 5790 5791 5792 5793 5795 5795 5796 5797 5798 5799 5800 5802 5804 5806 5807 5810 5813 5815 5817 5818 5820 5821 5822 5824 5825 5826 5828 5830 5831 5833 5834 5835 5837 5839 5841 5844 5847 5848 5849 5850 5851 5852 5853 5855 5857 5859 5860 5862 5863 5864 5865 5867 5868 5869 5870 5871 5873 5874 5876 5879 5882 5883 5885 5888 5889 5891 5892 5893 5893 5894 5894 5895 5896 5897 5899 5901
5775 5776 5777 5778 5779 5779 5780 5781 5782 5783 5785 5786 5787 5788 5789 5790 5791 5792 5793 5793 5794 5795 5796 5797 5798 5801 5804 5806 5808 5810 5812 5814 5815 5817 5818 5819 5820 5822 5824 5825 5826 5827 5828 5829 5831 5834 5837 5839 5841 5842 5844 5845 5846 5847 5849 5851 5853 5855 5856 5857 5859 5860 5861 5862 5864 5865 5866 5867 5868 5870 5872 5874 5876 5878 5881 5883 5885 5887 5888 5889 5889 5890 5890 5891 5892 5894 5896
5772 5773 5774 5775 5776 5776 5777 5777 5778 5780 5782 5783 5783 5784 5785 5786 5787 5788 5788 5789 5790 5790 5791 5792 5793 5794 5797 5799 5801 5803 5805 5807 5809 5810 5812 5813 5815 5817 5818 5818 5819 5820 5821 5823 5825 5827 5829 5830 5832 5834 5836 5837 5839 5841 5843 5844 5846 5847 5849 5850 5852 5853 5855 5856 5858 5859 5861 5862 5863 5864 5867 5868 5869 5871 5873 5875 5878 5880 5881 5883 5884 5885 5885 5885 5887 5888 5890
5768 5769 5770 5771 5772 5772 5773 5774 5775 5777 5778 5779 5780 5781 5781 5782 5783 5783 5784 5784 5785 5785 5786 5787 5788 5790 5792 5793 5794 5796 5798 5800 5802 5803 5805 5807 5809 5810 5811 5812 5812 5813 5815 5817 5819 5820 5821 5821 5823 5825 5827 5830 5832 5834 5835 5837 5838 5840 5841 5842 5844 5845 5846 5848 5850 5852 5854 5856 5857 5858 5860 5862 5863 5864 5866 5868 5870 5871 5873 5876 5878 5879 5880 5880 5881 5883 5884
5764 5765 5765 5766 5767 5767 5768 5770 5771 5772 5773 5775 5776 5777 5778 5778 5779 5779 5779 5779 5780 5781 5782 5783 5785 5786 5787 5788 5789 5791 5792 5793 5795 5797 5799 5800 5802 5803 5804 5804 5805 5806 5809 5811 5812 5813 5813 5814 5816 5818 5820 5822 5824 5826 5827 5829 5831 5832 5833 5834 5836 5837 5838 5840 5842 5844 5846 5848 5850 5851 5853 5854 5855 5857 5859 5860 5862 5863 5865 5867 5869 5872 5873 5874 5875 5876 5878
5760 5760 5760 5761 5761 5762 5763 5765 5766 5766 5767 5769 5770 5771 5772 5773 5774 5775 5775 5775 5775 5776 5776 5778 5780 5782 5782 5783 5784 5785 5786 5787 5789 5791 5792 5794 5796 5797 5797 5797 5798 5800 5802 5803 5804 5805 5807 5808 5810 5812 5813 5814 5815 5817 5820 5821 5822 5824 5825 5827 5828 5830 5831 5832 5833 5835 5838 5840 5842 5844 5845 5846 5848 5850 5852 5852 5854 5856 5857 5859 5861 5863 5865 5866 5868 5869 5871
5755 5756 5756 5755 5756 5756 5757 5758 5759 5760 5761 5762 5764 5765 5766 5767 5768 5769 5770 5770 5771 5771 5771 5772 5774 5776 5777 5777 5778 5778 5779 5781 5782 5784 5786 5788 5789 5789 5790 5791 5793 5795 5795 5795 5795 5797 5799 5802 5804 5805 5805 5805 5807 5809 5811 5812 5814 5816 5818 5819 5820 5821 5823 5824 5825 5827 5829 5831 5833 5835 5837 5839 5840 5842 5844 5845 5846 5848 5850 5852 5852 5853 5855 5857 5859 5861 5863
5751 5751 5751 5751 5751 5751 5751 5751 5752 5753 5754 5755 5757 5759 5760 5761 5762 5763 5764 5765 5765 5766 5767 5767 5769 5770 5771 5771 5771 5772 5773 5775 5776 5778 5780 5780 5781 5781 5782 5785 5787 5789 5789 5788 5788 5789 5793 5795 5796 5797 5797 5798 5800 5801 5802 5804 5806 5808 5810 5811 5812 5813 5815 5816 5817 5819 5821 5823 5825 5826 5828 5830 5832 5833 5835 5837 5838 5839 5841 5843 5844 5845 5846 5849 5850 5851 5853
5746 5746 5746 5746 5747 5747 5746 5746 5746 5747 5747 5748 5749 5751 5753 5754 5755 5756 5758 5758 5759 5760 5761 5762 5763 5764 5765 5765 5765 5766 5767 5769 5770 5771 5772 5772 5772 5773 5775 5778 5780 5782 5782 5781 5782 5784 5787 5787 5788 5789 5790 5792 5793 5794 5795 5796 5798 5799 5801 5802 5803 5805 5806 5808 5810 5812 5813 5815 5816 5818 5819 5820 5822 5823 5826 5828 5830 5831 5832 5834 5836 5837 5838 5839 5841 5842 5844
5741 5741 5741 5741 5741 5741 5742 5742 5742 5741 5742 5742 5743 5743 5745 5746 5748 5749 5749 5750 5751 5753 5754 5755 5756 5757 5758 5759 5759 5760 5761 5763 5763 5764 5764 5765 5766 5768 5769 5770 5771 5773 5774 5775 5777 5779 5780 5780 5780 5782 5783 5784 5785 5786 5787 5788 5790 5791 5792 5794 5795 5796 5797 5799 5801 5803 5805 5806 5807 5809 5810 5811 5813 5814 5816 5818 5820 5821 5823 5825 5827 5828 5829 5830 5831 5833 5835
5734 5734 5734 5734 5734 5735 5735 5735 5736 5736 5736 5736 5737 5737 5737 5738 5739 5740 5742 5743 5744 5745 5747 5748 5750 5751 5751 5752 5753 5754 5755 5756 5756 5757 5758 5759 5760 5762 5762 5762 5763 5764 5765 5768 5771 5772 5772 5773 5774 5776 5776 5777 5778 5779 5780 5781 5783 5784 5785 5786 5787 5788 5789 5791 5792 5794 5795 5796 5798 5799 5801 5802 5804 5805 5807 5808 5809 5811 5813 5815 5817 5819 5820 5821 5822 5823 5825
5728 5728 5728 5727 5727 5727 5727 5728 5728 5729 5729 5729 5730 5730 5730 5731 5731 5732 5734 5735 5736 5737 5738 5740 5742 5743 5744 5745 5746 5747 5748 5749 5750 5751 5752 5753 5754 5755 5755 5755 5755 5756 5758 5761 5763 5764 5765 5766 5767 5769 5769 5770 5771 5772 5773 5774 5775 5776 5778 5778 5779 5780 5781 5782 5783 5785 5786 5787 5788 5789 5791 5793 5794 5796 5798 5799 5800 5801 5803 5804 5806 5808 5810 5811 5812 5814 5816
5721 5721 5721 5720 5720 5720 5720 5720 5721 5721 5721 5722 5722 5723 5723 5723 5724 5725 5726 5726 5727 5729 5730 5732 5733 5735 5737 5738 5739 5740 5741 5742 5743 5744 5745 5746 5747 5748 5749 5749 5749 5749 5751 5753 5755 5756 5758 5759 5760 5761 5761 5762 5764 5765 5766 5767 5768 5769 5770 5771 5772 5773 5773 5774 5775 5776 5777 5778 5778 5780 5781 5783 5784 5786 5788 5789 5791 5793 5794 5795 5796 5798 5800 5801 5802 5804 5805
5714 5714 5714 5714 5714 5714 5713 5713 5713 5713 5713 5714 5714 5715 5716 5716 5717 5718 5718 5718 5718 5720 5721 5723 5725 5727 5728 5730 5732 5732 5734 5735 5736 5736 5738 5739 5740 5741 5742 5742 5742 5743 5744 5746 5747 5749 5750 5751 5752 5753 5753 5754 5756 5758 5759 5760 5761 5761 5762 5763 5764 5765 5766 5766 5767 5768 5768 5769 5769 5770 5771 5772 5774 5776 5777 5779 5780 5782 5784 5785 5786 5787 5789 5790 5792 5793 5795
5708 5708 5707 5707 5707 5707 5706 5706 5706 5706 5706 5706 5707 5707 5708 5709 5710 5711 5711 5711 5711 5712 5713 5715 5717 5719 5720 5722 5723 5724 5725 5727 5728 5729 5730 5731 5732 5734 5735 5735 5735 5736 5737 5739 5741 5741 5742 5742 5744 5745 5746 5746 5748 5750 5751 5752 5753 5754 5755 5755 5756 5757 5757 5758 5759 5760 5760 5760 5760 5761 5762 5763 5764 5765 5767 5769 5770 5771 5773 5774 5776 5777 5778 5779 5781 5783 5784
5702 5701 5701 5700 5700 5699 5699 5699 5699 5699 5699 5699 5699 5699 5700 5701 5702 5702 5703 5704 5705 5706 5706 5707 5709 5711 5712 5714 5714 5715 5717 5719 5720 5721 5722 5723 5724 5726 5727 5726 5727 5729 5731 5732 5733 5734 5734 5735 5737 5738 5739 5739 5741 5742 5743 5744 5745 5746 5747 5747 5748 5748 5749 5750 5751 5751 5752 5752 5752 5753 5753 5754 5754 5755 5756 5758 5759 5761 5762 5763 5765 5766 5767 5769 5770 5771 5772
5695 5694 5694 5693 5693 5692 5692 5692 5692 5692 5691 5691 5691 5691 5692 5692 5694 5694 5695 5696 5698 5699 5700 5701 5702 5703 5704 5705 5706 5708 5710 5712 5712 5713 5714 5715 5716 5717 5717 5717 5719 5721 5723 5725 5725 5725 5726 5728 5729 5731 5731 5732 5734 5735 5735 5735 5737 5737 5738 5739 5740 5741 5741 5741 5741 5742 5743 5743 5743 5744 5744 5744 5744 5745 5746 5747 5748 5749 5750 5752 5753 5754 5756 5757 5758 5759 5760
5688 5687 5686 5686 5685 5685 5685 5684 5684 5684 5684 5684 5684 5684 5684 5685 5686 5687 5688 5689 5690 5692 5692 5694 5695 5696 5697 5698 5699 5702 5704 5706 5705 5706 5707 5709 5709 5709 5709 5710 5712 5714 5715 5717 5717 5717 5718 5720 5722 5723 5724 5725 5726 5726 5727 5727 5729 5730 5730 5731 5732 5732 5732 5732 5732 5732 5733 5733 5733 5734 5734 5734 5735 5735 5735 5736 5737 5738 5739 5740 5741 5742 5744 5745 5746 5747 5748
5681 5680 5679 5678 5677 5677 5677 5677 5676 5676 5676 5676 5676 5676 5677 5678 5678 5679 5680 5682 5683 5684 5685 5687 5688 5689 5690 5691 5693 5696 5698 5699 5699 5699 5701 5702 5702 5702 5703 5704 5706 5707 5708 5709 5710 5710 5712 5713 5715 5716 5716 5717 5718 5718 5719 5720 5721 5722 5723 5723 5723 5723 5723 5723 5723 5723 5723 5723 5723 5723 5724 5724 5724 5724 5725 5725 5726 5726 5727 5728 5728 5729 5731 5732 5734 5735 5736
5671 5671 5670 5670 5669 5669 5669 5669 5668 5668 5668 5668 5668 5669 5669 5670 5671 5672 5673 5674 5675 5677 5679 5680 5681 5682 5683 5685 5687 5690 5691 5692 5692 5693 5695 5695 5696 5696 5697 5699 5699 5700 5701 5702 5703 5704 5705 5707 5708 5709 5709 5710 5710 5711 5712 5713 5714 5714 5715 5715 5714 5714 5714 5714 5714 5714 5713 5713 5713 5713 5713 5713 5714 5714 5714 5714 5714 5715 5715 5715 5716 5716 5717 5719 5721 5722 5723
5661 5660 5660 5659 5659 5659 5659 5660 5660 5660 5660 5661 5661 5661 5662 5663 5664 5665 5666 5667 5668 5671 5672 5673 5674 5675 5677 5679 5681 5684 5685 5686 5686 5688 5689 5689 5690 5691 5692 5693 5693 5694 5694 5695 5696 5698 5699 5700 5701 5701 5702 5702 5703 5704 5704 5705 5706 5706 5707 5707 5706 5706 5706 5706 5706 5705 5705 5705 5704 5704 5704 5704 5704 5704 5703 5703 5703 5703 5703 5703 5703 5704 5705 5706 5707 5709 5710
5651 5650 5649 5648 5648 5648 5648 5649 5650 5651 5651 5652 5653 5654 5655 5656 5657 5658 5659 5661 5662 5664 5665 5667 5668 5669 5671 5673 5675 5678 5679 5681 5681 5682 5682 5683 5684 5685 5686 5687 5687 5687 5688 5689 5691 5692 5693 5693 5693 5694 5695 5696 5696 5697 5697 5697 5698 5698 5699 5699 5698 5698 5698 5698 5697 5697 5696 5696 5695 5695 5695 5694 5694 5694 5693 5692 5692 5691 5691 5691 5691 5692 5692 5693 5694 5695 5696
5641 5639 5637 5636 5636 5636 5636 5637 5638 5639 5640 5641 5643 5645 5647 5648 5649 5651 5653 5654 5656 5657 5659 5661 5662 5664 5666 5668 5670 5672 5674 5676 5676 5676 5676 5677 5678 5680 5681 5682 5681 5681 5683 5684 5685 5686 5686 5686 5687 5687 5688 5689 5689 5690 5690 5690 5690 5690 5691 5691 5691 5691 5690 5690 5689 5689 5688 5687 5686 5686 5685 5685 5684 5684 5683 5682 5681 5680 5680 5679 5679 5680 5681 5682 5682 5682 5683
5631 5629 5627 5625 5624 5624 5624 5625 5626 5627 5628 5630 5633 5635 5637 5639 5641 5644 5646 5648 5650 5651 5653 5655 5657 5659 5661 5663 5665 5667 5669 5670 5670 5670 5671 5672 5674 5675 5676 5676 5675 5676 5677 5679 5680 5680 5680 5680 5681 5681 5682 5682 5683 5683 5683 5683 5683 5683 5683 5683 5683 5683 5682 5681 5681 5680 5679 5679 5678 5676 5675 5675 5674 5673 5673 5672 5671 5670 5669 5669 5668 5668 5669 5670 5670 5670 5671
5622 5620 5618 5616 5615 5613 5613 5614 5614 5615 5616 5619 5622 5624 5627 5630 5632 5636 5639 5642 5644 5645 5647 5650 5652 5653 5655 5657 5660 5661 5662 5663 5664 5665 5666 5667 5669 5671 5671 5670 5670 5671 5672 5673 5674 5674 5675 5675 5676 5676 5676 5676 5676 5677 5677 5677 5676 5676 5676 5675 5675 5674 5674 5673 5672 5671 5671 5670 5669 5667 5666 5665 5664 5663 5662 5662 5661 5660 5659 5658 5657 5657 5657 5658 5658 5658 5659
5613 5610 5607 5605 5604 5603 5602 5603 5603 5604 5606 5608 5610 5613 5616 5619 5623 5627 5631 5635 5638 5640 5642 5644 5646 5648 5649 5651 5653 5655 5656 5657 5658 5659 5661 5663 5664 5666 5665 5664 5665 5667 5668 5668 5669 5669 5669 5670 5670 5670 5670 5670 5670 5670 5670 5669 5669 5668 5668 5668 5667 5667 5666 5665 5664 5663 5662 5661 5660 5658 5657 5655 5654 5653 5652 5651 5650 5649 5648 5647 5646 5646 5646 5646 5646 5646 5647
5603 5600 5597 5595 5593 5591 5591 5591 5592 5593 5595 5597 5600 5603 5606 5610 5614 5619 5624 5628 5631 5634 5637 5639 5641 5642 5644 5646 5648 5649 5650 5651 5652 5655 5656 5658 5659 5660 5659 5660 5661 5662 5662 5663 5663 5664 5664 5664 5664 5664 5664 5664 5664 5663 5663 5662 5661 5661 5661 5660 5660 5659 5658 5657 5656 5655 5653 5652 5651 5649 5648 5646 5645 5643 5642 5641 5639 5638 5637 5636 5636 5635 5635 5635 5635 5635 5636
5595 5591 5589 5586 5584 5582 5581 5580 5581 5582 5584 5587 5591 5594 5597 5601 5606 5612 5617 5621 5625 5629 5632 5634 5636 5638 5639 5641 5643 5644 5645 5647 5648 5650 5652 5653 5653 5654 5654 5655 5656 5657 5657 5657 5658 5658 5658 5658 5658 5658 5658 5657 5657 5657 5656 5655 5654 5653 5653 5653 5652 5651 5650 5649 5647 5646 5644 5643 5641 5640 5638 5636 5635 5633 5631 5630 5628 5627 5627 5626 5626 5626 5626 5626 5626 5626 5626
5589 5585 5582 5579 5576 5573 5572 5571 5572 5573 5575 5578 5583 5587 5590 5593 5598 5605 5610 5615 5619 5623 5626 5629 5631 5633 5635 5636 5638 5640 5641 5643 5644 5646 5647 5647 5648 5648 5649 5650 5652 5652 5652 5652 5652 5652 5652 5652 5652 5652 5651 5651 5651 5650 5650 5649 5648 5647 5646 5646 5645 5643 5642 5640 5639 5637 5635 5633 5631 5630 5628 5627 5625 5623 5621 5620 5619 5618 5618 5618 5618 5618 5618 5618 5618 5618 5618
5584 5580 5577 5573 5569 5566 5564 5563 5564 5565 5568 5571 5575 5579 5583 5587 5593 5599 5604 5610 5614 5618 5621 5625 5627 5629 5631 5632 5634 5635 5637 5638 5640 5641 5642 5643 5644 5644 5644 5646 5647 5647 5646 5646 5646 5646 5646 5646 5646 5646 5645 5645 5644 5644 5643 5643 5642 5640 5639 5638 5636 5635 5633 5631 5629 5627 5625 5623 5622 5620 5618 5617 5615 5613 5612 5611 5610 5610 5610 5611 5611 5611 5611 5611 5611 5610 5610
5581 5577 5573 5569 5564 5561 5558 5557 5557 5559 5562 5566 5570 5574 5578 5583 5589 5595 5601 5606 5610 5614 5618 5620 5623 5625 5627 5629 5630 5631 5633 5634 5635 5637 5638 5639 5639 5639 5640 5641 5641 5641 5641 5641 5641 5641 5641 5641 5641 5640 5640 5639 5638 5638 5637 5636 5635 5633 5631 5629 5627 5625 5623 5621 5619 5617 5615 5613 5612 5610 5608 5607 5606 5605 5604 5603 5603 5604 5604 5604 5605 5605 5604 5604 5604 5604 5604
5579 5575 5570 5566 5562 5558 5555 5553 5553 5555 5558 5563 5567 5571 5576 5581 5586 5593 5599 5604 5608 5612 5614 5617 5618 5621 5623 5625 5626 5627 5629 5630 5632 5633 5634 5635 5635 5635 5635 5636 5636 5636 5636 5635 5635 5636 5636 5635 5635 5635 5634 5633 5632 5631 5629 5628 5626 5624 5622 5620 5618 5615 5613 5611 5609 5607 5605 5604 5602 5600 5599 5598 5598 5597 5597 5597 5597 5598 5598 5598 5598 5598 5598 5598 5598 5598 5598
5579 5574 5570 5565 5561 5557 5554 5552 5552 5554 5558 5562 5566 5570 5575 5580 5586 5592 5598 5603 5606 5609 5612 5614 5616 5618 5620 5621 5622 5623 5625 5627 5628 5629 5630 5631 5631 5631 5631 5631 5631 5631 5631 5631 5631 5631 5630 5630 5629 5629 5628 5627 5625 5623 5621 5619 5617 5615 5612 5610 5608 5605 5603 5601 5599 5597 5596 5594 5593 5592 5592 5591 5591 5591 5591 5591 5592 5592 5593 5593 5592 5592 5593 5593 5593 5593 5593
5580 5575 5571 5567 5563 5560 5557 5555 5555 5557 5560 5564 5569 5573 5577 5581 5586 5591 5597 5601 5605 5607 5610 5612 5614 5615 5616 5617 5619 5620 5621 5623 5624 5625 5626 5626 5627 5627 5626 5626 5626 5626 5626 5626 5626 5625 5625 5624 5623 5622 5621 5620 5618 5616 5614 5611 5608 5606 5603 5601 5598 5596 5594 5592 5591 5589 5588 5587 5586 5586 5586 5585 5585 5586 5586 5586 5587 5587 5587 5587 5587 5587 5587 5587 5587 5587 5587
5582 5578 5574 5571 5568 5565 5563 5562 5562 5563 5566 5569 5573 5577 5580 5584 5588 5592 5597 5600 5603 5606 5609 5611 5612 5612 5613 5614 5616 5617 5618 5619 5619 5620 5621 5622 5622 5623 5622 5622 5622 5622 5622 5622 5621 5620 5620 5619 5617 5616 5614 5612 5611 5609 5606 5602 5600 5597 5595 5592 5590 5588 5587 5585 5584 5583 5582 5581 5581 5580 5580 5580 5581 5581 5581 5582 5582 5582 5582 5583 5583 5583 5583 5583 5582 5582 5582
5585 5582 5579 5576 5573 5572 5570 5570 5570 5571 5573 5575 5578 5581 5584 5587 5590 5593 5596 5599 5602 5605 5607 5608 5609 5609 5610 5611 5613 5614 5614 5615 5616 5616 5617 5618 5619 5619 5619 5619 5618 5618 5618 5617 5616 5615 5614 5612 5611 5609 5607 5604 5602 5600 5598 5595 5592 5590 5588 5586 5584 5582 5581 5579 5578 5577 5577 5576 5576 5576 5576 5576 5576 5576 5577 5577 5577 5578 5578 5578 5578 5578 5578 5578 5577 5577 5577